Regional Weather Roundup
Issued by NWS Mobile, AL

Home | Current Version | Previous Version | Text Only | Print | Product List | Glossary On
Versions: 1 2 3 4 5 6 7 8 9 10 11 12 13 14 15 16 17 18 19 20 21 22 23 24 25 26 27 28 29 30 31 32 33 34 35 36 37 38 39 40 41 42 43 44 45 46 47 48 49 50
000
ASUS44 KMOB 250517
RWRMOB
REGIONAL WEATHER ROUNDUP
NATIONAL WEATHER SERVICE MOBILE AL
1200 AM CDT MON MAY 25 2015

ALZ061>064-250600-
COASTAL ALABAMA


CITY           SKY/WX    TMP DP  RH WIND       PRES   REMARKS
MOBILE REG APT CLOUDY    78  74  87 SE12G22   30.11F
BROOKLEY FIELD MOCLDY    80  74  81 SE16      30.11F
GULF SHORES    MOCLDY    78  74  87 SE9       30.12S

$$

ALZ051>060-250600-
INTERIOR SOUTHWEST AND SOUTH CENTRAL ALABAMA


CITY           SKY/WX    TMP DP  RH WIND       PRES   REMARKS
ANDALUSIA/OPP  CLEAR     73  68  84 CALM      30.16S
EVERGREEN      CLEAR     72  70  93 SE6       30.14F
FLORALA        CLEAR     70  68  93 CALM      30.17S
GREENVILLE     FAIR      71  67  87 S5        30.15F

$$

FLZ001>006-250600-
WESTERN FLORIDA PANHANDLE


CITY           SKY/WX    TMP DP  RH WIND       PRES   REMARKS
CRESTVIEW      CLEAR     71  70  96 E5        30.16S FOG
DESTIN         CLEAR     80  74  81 SE8       30.14S
DUKE FIELD     FAIR      71  69  94 E5        30.13
MARY ESTHER    PTCLDY    79  73  82 SE12G17   30.12F
MILTON           N/A    N/A N/A N/A MISG      30.14F
PENSACOLA      MOCLDY    77  73  87 SE14      30.13F
NAS PENSACOLA  PTCLDY    79  74  84 SE13      30.12S
VALPARAISO     PTCLDY    79  73  83 SE7       30.14S

$$

...MARINE OBSERVATIONS...

STATION/POSITION TIME  SKY/WX   TEMP    WIND        PRES    VSBY
                                AIR SEA DIR/SP/G
                 (UTC)          (F)     (DEG/KT/KT) (MB)    (MI)
PASCAGOULA       0400            81     140/ 20/ 29 1018.9R
PETIT BOIS ISL   0400            81     140/ 20/ 25 1019.6R
E DAUPHIN ISLAND 0500            80     140/ 18/ 21 1018.9F
MIDDLE BAY LIGHT 0400            79     140/ 22     1019.0R
USCG MOBILE BAY  0400            80 82  140/  8/ 14 1018.6S
STATE DOCKS      0400            79 81              1019.6S
MEAHER PARK      0500            78     130/  9     1019.0F
FORT MORGAN      0400            80     160/ 20/ 23 1019.2R
12 S ORANGE BCH  0450            80 80  130/ 16/ 19 1018.9S
WVE H/P(F/S)=  5/ 6

PENSACOLA BAY    0400            80 82  150/  7/ 11 1020.6R
64 S DAUPHIN ISL 0450            80 78  140/ 16/ 19 1019.5R
WVE H/P(F/S)=  6/ 7

67 S FORT MORGAN 0430            80     140/ 19     1019.6
115 SE PENSACOLA 0450            80 80  130/ 14/ 16 1020.4F
WVE H/P(F/S)=  4/ 6

MID GULF/42001   0450            82 82  120/ 12/ 14 1018.2F
WVE H/P(F/S)=  3/ 6

EAST GULF/42003  0450            81 81  110/ 12/ 14 1019.4F
WVE H/P(F/S)=  4/ 6


$$

...NEARBY LOCATIONS

CITY           SKY/WX    TMP DP  RH WIND       PRES   REMARKS
GULFPORT       CLOUDY    79  74  84 SE22G29   30.05F
BILOXI         CLOUDY    79  76  92 S17G25    30.06F
PASCAGOULA     MOCLDY    79  74  84 SE15      30.08F
HATTIESBURG    CLOUDY    72  70  93 CALM      30.09S
LAUREL         CLOUDY    73  70  88 SE7       30.10R
MERIDIAN       CLOUDY    73  71  93 S7        30.09F
MERIDIAN NAS   CLOUDY    73  71  93 SE3       30.09F
MONTGOMERY     CLOUDY    75  68  78 E6        30.16S
MAXWELL AFB    CLOUDY    77  68  72 SE8       30.14S
TROY           CLOUDY    72  70  93 E3        30.18S
FORT RUCKER    PTCLDY    76  65  68 SE6       30.16R
DALEVILLE      PTCLDY    74  66  75 SE8       30.17R
DOTHAN         CLEAR     76  62  62 SE13      30.21S

$$

...OTHER SURROUNDING LOCATIONS...

CITY           SKY/WX    TMP DP  RH WIND       PRES   REMARKS
BIRMINGHAM     PTCLDY    73  64  73 SE8       30.17F
TUSCALOOSA     PTCLDY    73  68  84 VRB7      30.12F
COLUMBUS GA    CLEAR     74  57  55 SE9       30.21S
PANAMA CITY    NOT AVBL
TALLAHASSEE    CLEAR     78  65  63 E12       30.20R
BATON ROUGE    CLOUDY    70  69  97 E6        30.03F
NEW ORLEANS    CLOUDY    78  70  76 SE10      30.04F
SLIDELL        CLOUDY    78  74  87 VRB5      30.03F THUNDER
JACKSON        CLOUDY    74  71  91 SE10      30.06R
MCCOMB         CLOUDY    70  69  97 E5        30.07S

$$

...SURROUNDING MARINE OBSERVATIONS...

STATION/POSITION TIME  SKY/WX   TEMP    WIND        PRES    VSBY
                                AIR SEA DIR/SP/G
                 (UTC)          (F)     (DEG/KT/KT) (MB)    (MI)
WAVELAND         0400            81 82  150/ 22/ 27 1018.1F
PASCAGOULA RGN A 0400            81     140/ 14/ 22 1018.8R
PASCAGOULA PORT  0400               83                N/A
GRAND ISLE       0400            82 82  160/ 10/ 18 1017.5F
SOUTHWEST PASS   0500            81     160/ 18/ 19 1017.9F
PILOT STATION E  0400            81 75  160/ 14/ 17 1018.7S
SHELL BEACH      0400            81 83  150/ 13/ 18 1017.5R
PANAMA CITY      0400            80 83  110/  6/ 10 1020.2F
APALACHICOLA     0400            80 82  150/ 13/ 15 1020.9F
TYNDALL TOWER C  0500            78     110/ 22/ 24 1020.9F
S APLCHCLA/42036 0450            81 80  110/ 14/ 16 1020.6F
WVE H/P(F/S)=  2/ 4


$$



USA.gov is the U.S. government's official web portal to all federal, state and local government web resources and services.